{"data":{"norad_id":56429,"epoch":"2026-09-20T00:00:26.390880Z","epoch_age_seconds":155152,"freshness":"FRESH","line1":"1 56429U 23061BH  26263.00030545  .00000635  00000+0  32606-4 0  9998","line2":"2 56429  43.0014 162.4651 0001460 262.4634  97.6052 15.27572000186679","mean_motion":15.27572,"eccentricity":0.000146,"inclination_deg":43.0014,"raan_deg":162.4651,"arg_perigee_deg":262.4634,"mean_anomaly_deg":97.6052,"bstar":3.2606e-5,"rev_number":18667,"period_min":94.267242395121,"perigee_km":482.07131435473,"apogee_km":484.07478768963,"semimajor_km":6861.2100510222,"source":"CELESTRAK","updated_at":"2026-09-21T09:00:33.440662Z"}}